Terug naar catalogus

STARLINK-34572

ActiefCommunicatieVLEO
NORAD 64720·PAYLOAD·🇺🇸 United States

Gelanceerd Jun 28, 2025 vanaf Vandenberg Space Force Base

Loading…

Volgende Passages (komende 24 uur)

TLE

VersSource: CelesTrak SupGP

Epoch: Sep 14, 2026, 22:41 UTC

1 64720C 25142AA  26257.94562500 -.00028460  00000+0 -98954-3 0  2572
2 64720  70.0012 195.5713 0003080 266.9746  41.7176 15.29609739    11

Volg STARLINK-34572 in realtime met AllMySat

Download on the App Store